Location: Maccacari
(45.1333°N, 11.1333°E)
Time: 15:10:49
(UTC+00:00)

S-56A Canister/Altair - Pass Details

Date: 22 January 2021
Orbit: 631 x 2501 km, 38.9° (Epoch: 01 March)

Event Time Altitude Azimuth Distance (km) Brightness Sun altitude
Rises 04:08:43 0° 254° (WSW) 2,917 - -27.4°
Reaches altitude 10° 04:10:57 10° 247° (WSW) 2,048 - -27.0°
Exits shadow 04:15:06 42° 181° (S) 1,024 8.1 -26.3°
Maximum altitude 04:15:15 42° 176° (S) 1,027 8.1 -26.3°
Drops below altitude 10° 04:20:40 10° 106° (ESE) 2,579 11.2 -25.3°
Sets 04:23:49 0° 101° (E) 3,782 12.4 -24.8°
